Weather History for KBXA - November, 2013

Change the Weather History Date:

Thursday, November 14, 2013

  Actual Average Record
Temperature  
Mean Temperature 49 °F -  
Max Temperature 68 °F 68 °F 68 °F (2013)
Min Temperature 30 °F 44 °F 30 °F (2013)
Degree Days  
Heating Degree Days 16    
Moisture  
Dew Point 38 °F    
Average Humidity 65    
Maximum Humidity 92    
Minimum Humidity 37    
Precipitation  
Precipitation 0.00 in - - ()
Sea Level Pressure  
Sea Level Pressure 30.31 in    
Wind  
Wind Speed 1 mph (East)    
Max Wind Speed 7 mph    
Max Gust Speed -    
Visibility 10 miles    
Events      
Averages and records for this station are not official NWS values.
T = Trace of Precipitation, MM = Missing Value Source: NWS Daily Summary

Daily Weather History Graph

Daily Weather History Graph

Search for Another Location

Airport or City:

Trip Planner

Search our weather history database for the weather conditions in past years. The results will help you decide how hot, cold, wet, or windy it might be!

Date:

Astronomy

Nov. 14, 2013 Rise Set
Actual Time 6:25 AM CST 5:02 PM CST
Civil Twilight 5:59 AM CST 5:27 PM CST
Nautical Twilight 5:30 AM CST 5:56 PM CST
Astronomical Twilight 5:02 AM CST 6:25 PM CST
Moon 3:14 PM CST (11/14) 3:31 AM CST (11/14)
Length of Visible Light 11h 27m
Length of Day
10h 36m
Waxing Gibbous, 92% of the Moon is Illuminated
Nov 14
Waxing Gibbous
Nov 17
Full
Nov 25
Last Quarter
Dec 2
New
Dec 9
First Quarter

Hourly Weather History & Observations

Time (CST) Temp. Windchill Dew Point Humidity Pressure Visibility Wind Dir Wind Speed Gust Speed Precip Events Conditions
12:15 AM 32.4 °F - 28.9 °F 87% 30.45 in 10.0 mi Calm Calm - N/A   Unknown
12:35 AM 32.9 °F - 29.8 °F 88% 30.44 in 10.0 mi Calm Calm - N/A   Unknown
12:55 AM 32.2 °F - 30.2 °F 92% 30.43 in 10.0 mi Calm Calm - N/A   Unknown
1:15 AM 32.0 °F - 29.3 °F 90% 30.43 in 10.0 mi Calm Calm - N/A   Unknown
1:35 AM 32.0 °F - 29.5 °F 90% 30.43 in 10.0 mi Calm Calm - N/A   Unknown
1:55 AM 32.0 °F - 28.8 °F 88% 30.43 in 10.0 mi Calm Calm - N/A   Unknown
2:15 AM 31.1 °F - 28.4 °F 90% 30.42 in 10.0 mi Calm Calm - N/A   Unknown
2:35 AM 32.0 °F - 28.9 °F 88% 30.42 in 10.0 mi Calm Calm - N/A   Unknown
2:55 AM 32.0 °F - 28.0 °F 85% 30.41 in 10.0 mi Calm Calm - N/A   Unknown
3:15 AM 31.1 °F - 28.0 °F 88% 30.41 in 10.0 mi Calm Calm - N/A   Unknown
3:35 AM 30.4 °F - 27.0 °F 87% 30.41 in 10.0 mi Calm Calm - N/A   Unknown
3:55 AM 31.8 °F - 27.5 °F 84% 30.40 in 10.0 mi Calm Calm - N/A   Unknown
4:15 AM 31.6 °F - 27.3 °F 84% 30.40 in 10.0 mi Calm Calm - N/A   Unknown
4:35 AM 31.6 °F - 26.8 °F 82% 30.41 in 10.0 mi Calm Calm - N/A   Unknown
4:55 AM 31.1 °F - 27.0 °F 85% 30.41 in 10.0 mi Calm Calm - N/A   Unknown
5:15 AM 32.0 °F - 27.3 °F 83% 30.41 in 10.0 mi Calm Calm - N/A   Unknown
5:35 AM 31.3 °F - 27.3 °F 85% 30.41 in 10.0 mi Calm Calm - N/A   Unknown
5:55 AM 32.0 °F - 27.3 °F 83% 30.41 in 10.0 mi Calm Calm - N/A   Unknown
6:15 AM 32.0 °F - 27.5 °F 83% 30.41 in 10.0 mi Calm Calm - N/A   Unknown
6:35 AM 32.0 °F - 28.2 °F 86% 30.41 in 10.0 mi Calm Calm - N/A   Unknown
6:55 AM 32.2 °F - 28.4 °F 86% 30.41 in 10.0 mi Calm Calm - N/A   Unknown
7:15 AM 33.4 °F - 29.8 °F 87% 30.42 in 10.0 mi Calm Calm - N/A   Unknown
7:35 AM 35.2 °F - 30.4 °F 82% 30.42 in 10.0 mi Calm Calm - N/A   Unknown
7:55 AM 39.4 °F - 29.1 °F 67% 30.42 in 10.0 mi Calm Calm - N/A   Unknown
8:15 AM 42.4 °F - 29.8 °F 61% 30.42 in 10.0 mi Calm Calm - N/A   Unknown
8:35 AM 44.6 °F 43.1 °F 30.6 °F 58% 30.42 in 10.0 mi ENE 3.5 mph - N/A   Unknown
8:55 AM 46.9 °F - 30.9 °F 54% 30.42 in 10.0 mi East 3.5 mph - N/A   Unknown
9:15 AM 49.6 °F - 31.8 °F 50% 30.41 in 10.0 mi East 3.5 mph - N/A   Unknown
9:35 AM 52.5 °F - 32.5 °F 47% 30.40 in 10.0 mi ENE 4.6 mph - N/A   Unknown
9:55 AM 55.4 °F - 33.6 °F 44% 30.40 in 10.0 mi East 5.8 mph - N/A   Unknown
10:15 AM 57.7 °F - 35.1 °F 43% 30.39 in 10.0 mi East 3.5 mph - N/A   Unknown
10:35 AM 59.0 °F - 36.0 °F 42% 30.38 in 10.0 mi Calm Calm - N/A   Unknown
10:55 AM 60.6 °F - 37.6 °F 42% 30.37 in 10.0 mi ESE 3.5 mph - N/A   Unknown
11:15 AM 62.2 °F - 39.0 °F 42% 30.36 in 10.0 mi East 5.8 mph - N/A   Unknown
11:35 AM 63.9 °F - 40.1 °F 42% 30.33 in 10.0 mi East 6.9 mph - N/A   Unknown
11:55 AM 64.2 °F - 40.5 °F 42% 30.32 in 10.0 mi East 4.6 mph - N/A   Unknown
12:15 PM 66.7 °F - 39.9 °F 37% 30.30 in 10.0 mi ENE 5.8 mph - N/A   Unknown
12:35 PM 67.3 °F - 40.8 °F 38% 30.29 in 10.0 mi ESE 6.9 mph - N/A   Unknown
12:55 PM 68.0 °F - 41.2 °F 38% 30.27 in 10.0 mi North - - N/A   Unknown
1:15 PM 68.2 °F - 42.3 °F 39% 30.26 in 10.0 mi South 4.6 mph - N/A   Unknown
1:35 PM 68.5 °F - 42.8 °F 39% 30.25 in 10.0 mi ESE 5.8 mph - N/A   Unknown
1:55 PM 67.5 °F - 43.3 °F 42% 30.24 in 10.0 mi North - - N/A   Unknown
2:15 PM 66.7 °F - 43.7 °F 43% 30.24 in 10.0 mi ESE 5.8 mph - N/A   Unknown
2:35 PM 66.4 °F - 43.9 °F 44% 30.23 in 10.0 mi SE 6.9 mph - N/A   Unknown
2:55 PM 66.4 °F - 44.2 °F 45% 30.23 in 10.0 mi ESE 6.9 mph - N/A   Unknown
3:15 PM 65.7 °F - 44.1 °F 46% 30.23 in 10.0 mi SSE 5.8 mph - N/A   Unknown
3:35 PM 65.5 °F - 44.8 °F 47% 30.23 in 10.0 mi SE 3.5 mph - N/A   Unknown
3:55 PM 65.3 °F - 45.5 °F 49% 30.23 in 10.0 mi ESE 4.6 mph - N/A   Unknown
4:15 PM 65.3 °F - 45.3 °F 48% 30.22 in 10.0 mi ESE 4.6 mph - N/A   Unknown
4:35 PM 64.4 °F - 46.0 °F 51% 30.22 in 10.0 mi ESE 3.5 mph - N/A   Unknown
4:55 PM 63.5 °F - 46.4 °F 54% 30.21 in 10.0 mi Calm Calm - N/A   Unknown
5:15 PM 62.4 °F - 46.8 °F 57% 30.21 in 10.0 mi Calm Calm - N/A   Unknown
5:35 PM 60.3 °F - 48.4 °F 65% 30.21 in 10.0 mi Calm Calm - N/A   Unknown
5:55 PM 59.0 °F - 49.1 °F 70% 30.21 in 10.0 mi North - - N/A   Unknown
6:15 PM 57.0 °F - 50.5 °F 79% 30.21 in 10.0 mi Calm Calm - N/A   Unknown
6:35 PM 59.0 °F - 50.4 °F 73% 30.21 in 10.0 mi Calm Calm - N/A   Unknown
6:55 PM 59.9 °F - 49.1 °F 67% 30.22 in 10.0 mi Calm Calm - N/A   Unknown
7:15 PM 59.9 °F - 48.4 °F 66% 30.21 in 10.0 mi ESE 3.5 mph - N/A   Unknown
7:35 PM 59.9 °F - 48.4 °F 66% 30.21 in 10.0 mi Calm Calm - N/A   Unknown
7:55 PM 59.5 °F - 48.2 °F 66% 30.21 in 10.0 mi Calm Calm - N/A   Unknown
8:15 PM 59.4 °F - 48.2 °F 67% 30.20 in 10.0 mi ESE 3.5 mph - N/A   Unknown
8:35 PM 59.4 °F - 47.7 °F 65% 30.20 in 10.0 mi Calm Calm - N/A   Unknown
8:55 PM 59.0 °F - 47.8 °F 66% 30.21 in 10.0 mi Calm Calm - N/A   Unknown
9:15 PM 57.6 °F - 48.6 °F 72% 30.20 in 10.0 mi Calm Calm - N/A   Unknown
9:35 PM 58.8 °F - 46.9 °F 65% 30.20 in 10.0 mi Calm Calm - N/A   Unknown
9:55 PM 58.8 °F - 46.9 °F 65% 30.20 in 10.0 mi Calm Calm - N/A   Unknown
10:15 PM 58.3 °F - 47.3 °F 67% 30.19 in 10.0 mi Calm Calm - N/A   Unknown
10:35 PM 58.1 °F - 46.8 °F 66% 30.18 in 10.0 mi Calm Calm - N/A   Unknown
10:55 PM 57.7 °F - 47.3 °F 68% 30.18 in 10.0 mi ENE 3.5 mph - N/A   Unknown
11:15 PM 58.1 °F - 46.9 °F 66% 30.18 in 10.0 mi NE 3.5 mph - N/A   Unknown
11:35 PM 58.3 °F - 46.8 °F 66% 30.16 in 10.0 mi East 4.6 mph - N/A   Unknown
11:55 PM 58.1 °F - 46.4 °F 65% 30.16 in 10.0 mi Calm Calm - N/A   Unknown